星链-34813(STARLINK-34813)

导读

STARLINK-34813是美国SpaceX公司星链(Starlink)卫星互联网星座的一员,于2025年10月26日发射入轨。作为星链大规模组网的最新卫星,它运行在近地轨道,将为全球提供高速低延迟互联网服务,重点覆盖传统基础设施难以抵达的偏远区域,也可支持军事与应急通信,助力星链持续扩展全球网络覆盖能力。

基本信息
目录编号:
66195
目录名称:
STARLINK-34813
国际标识:
2025-243U
轨道中心:
EARTH
卫星名称:
星链-34813
卫星全名:
星链-34813(STARLINK-34813)
卫星状态:
在轨 (已飞行313 天)
发射日期:
2025-10-26 UTC
国别 :
美国 (US)
星等 :
--
轨道信息
数据来源 国际轨道数据 AOE轨道数据
星历时间 2026-09-04T00:56:52+0800
12小时前
查看轨道信息
2026-09-02T23:00:00+0800
1天前
查看轨道信息
半长轴 6840.859km 6840.9km
偏心率 0.0001035 0.0001315
轨道倾角 53.157° 53.157°
近地点辐角 83.998° 83.707°
升交点赤经 135.923° 140.977°
平近点角 276.114° 60.933°
近地点 462.013km 461.863km
远地点 463.431km 463.663km
周期 93.848分钟 93.849分钟
每日圈数 15.34394 15.343801
详细信息
固有亮度:
5
最大亮度:
2.5
卫星平台:
Starlink V1.0
覆盖范围:
全球
运营商:
太空探索技术公司
运营商所在国:
美国
制造商(研发单位):
太空探索技术公司
制造商所在国:
美国
使用方式:
暂无
卫星简介
Starlink 计划是 SpaceX 推出的全球卫星互联网项目,通过发射低轨道卫星,为全球尤其是偏远地区提供高速、低延迟的互联网服务。自 2019 年起,Starlink 已部署数千颗卫星,旨在缩小全球数字鸿沟,推动互联网普及。该项目还为军事、航空等行业提供通信支持,带来广泛经济效益。
2D轨道图
3D轨道图
轨道高度分析图
轨道倾角分析图
轨道综合分析图
查看轨道综合分析图
交会数据列表
事件ID 空间交会对象 最接近时刻(TCA) 交会距离 交会风险概率(CRP) 交会风险指数(CRI) 操作
CDM_260827-232505-804006-619522
2026-08-27T
23:25:30+0000
1.242 km
极远距离
8.059555E-6 低风险 0.53
CDM_260903-055605-480606-619522
2026-09-03T
05:56:06+0000
2.260 km
极远距离
1.891076E-6 低风险 0.41
CDM_260827-215105-804006-619522
2026-08-27T
21:51:42+0000
2.910 km
极远距离
9.584467E-7 极低风险 0.35
CDM_260904-195905-146706-619522
2026-09-04T
19:59:34+0000
2.856 km
极远距离
8.535125E-7 极低风险 0.34